Location: *
(2.5500°S, 65.9667°W)
Time: 07:24:10
(UTC+00:00)

Tiros 1 despin weight - Pass Details

Date: 15 April 2024
Orbit: 578 x 621 km, 48.2° (Epoch: 27 May)

Event Time Altitude Azimuth Distance (km) Brightness Sun altitude
Rises 15:15:52 0° 211° (SSW) 2,790 ? 68.9°
Reaches altitude 10° 15:18:10 10° 206° (SSW) 1,893 ? 69.3°
Maximum altitude 15:22:24 52° 129° (SE) 727 ? 70.2°
Drops below altitude 10° 15:26:39 10° 53° (NE) 1,905 ? 71.0°
Sets 15:28:58 0° 48° (NE) 2,811 ? 71.4°
